Time,TemperatureF,DewpointF,PressureIn,WindDirection,WindDirectionDegrees,WindSpeedMPH,WindSpeedGustMPH,Humidity,HourlyPrecipIn,Conditions,Clouds,dailyrainin,SolarRadiationWatts/m^2,SoftwareType,DateUTC
2013-05-31 00:00:00,53.6,26.6,29.69,SSW,202,0.0,2.0,35,0.00,,,-99.99,0,WeatherLink 5.7,2013-05-31 06:00:00,
2013-05-31 00:15:00,53.0,27.4,29.69,North,-999,0.0,0.0,37,0.00,,,-99.99,0,WeatherLink 5.7,2013-05-31 06:15:00,
2013-05-31 00:20:00,52.8,27.2,29.68,North,-999,0.0,0.0,37,0.00,,,-99.99,0,WeatherLink 5.7,2013-05-31 06:20:00,
2013-05-31 00:30:00,52.3,27.4,29.68,North,-999,0.0,0.0,38,0.00,,,-99.99,0,WeatherLink 5.7,2013-05-31 06:30:00,
2013-05-31 00:35:00,52.2,28.0,29.68,North,-999,0.0,0.0,39,0.00,,,-99.99,0,WeatherLink 5.7,2013-05-31 06:35:00,
2013-05-31 00:40:00,52.0,27.8,29.68,North,-999,0.0,0.0,39,0.00,,,-99.99,0,WeatherLink 5.7,2013-05-31 06:40:00,
2013-05-31 00:50:00,51.7,27.5,29.68,North,-999,0.0,0.0,39,0.00,,,-99.99,0,WeatherLink 5.7,2013-05-31 06:50:00,
2013-05-31 00:55:00,51.6,28.6,29.68,North,-999,0.0,0.0,41,0.00,,,-99.99,0,WeatherLink 5.7,2013-05-31 06:55:00,
2013-05-31 01:00:00,51.4,28.5,29.68,North,-999,0.0,0.0,41,0.00,,,-99.99,0,WeatherLink 5.7,2013-05-31 07:00:00,
2013-05-31 01:10:00,51.1,28.2,29.68,North,-999,0.0,0.0,41,0.00,,,-99.99,0,WeatherLink 5.7,2013-05-31 07:10:00,
2013-05-31 01:20:00,51.0,27.5,29.68,North,-999,0.0,0.0,40,0.00,,,-99.99,0,WeatherLink 5.7,2013-05-31 07:20:00,
2013-05-31 01:25:00,51.0,29.3,29.68,North,-999,0.0,0.0,43,0.00,,,-99.99,0,WeatherLink 5.7,2013-05-31 07:25:00,
2013-05-31 01:35:00,51.1,28.2,29.68,North,-999,0.0,0.0,41,0.00,,,-99.99,0,WeatherLink 5.7,2013-05-31 07:35:00,
2013-05-31 01:40:00,51.1,26.3,29.68,North,-999,0.0,0.0,38,0.00,,,-99.99,0,WeatherLink 5.7,2013-05-31 07:40:00,
2013-05-31 01:50:00,51.3,30.1,29.67,North,-999,0.0,0.0,44,0.00,,,-99.99,0,WeatherLink 5.7,2013-05-31 07:50:00,
2013-05-31 01:55:00,51.1,29.9,29.67,North,-999,0.0,0.0,44,0.00,,,-99.99,0,WeatherLink 5.7,2013-05-31 07:55:00,
2013-05-31 02:00:00,50.7,30.1,29.67,North,-999,0.0,0.0,45,0.00,,,-99.99,0,WeatherLink 5.7,2013-05-31 08:00:00,
2013-05-31 02:10:00,50.4,28.1,29.69,North,-999,0.0,0.0,42,0.00,,,-99.99,0,WeatherLink 5.7,2013-05-31 08:10:00,
2013-05-31 02:15:00,50.5,28.2,29.69,North,-999,0.0,0.0,42,0.00,,,-99.99,0,WeatherLink 5.7,2013-05-31 08:15:00,
2013-05-31 02:25:00,50.4,29.8,29.65,North,-999,0.0,0.0,45,0.00,,,-99.99,0,WeatherLink 5.7,2013-05-31 08:25:00,
2013-05-31 02:30:00,50.2,29.7,29.65,North,-999,0.0,0.0,45,0.00,,,-99.99,0,WeatherLink 5.7,2013-05-31 08:30:00,
2013-05-31 02:40:00,50.1,29.6,29.68,North,-999,0.0,0.0,45,0.00,,,-99.99,0,WeatherLink 5.7,2013-05-31 08:40:00,
2013-05-31 02:45:00,50.1,30.1,29.68,North,-999,0.0,0.0,46,0.00,,,-99.99,0,WeatherLink 5.7,2013-05-31 08:45:00,
2013-05-31 02:55:00,50.1,30.1,29.68,SSW,202,0.0,1.0,46,0.00,,,-99.99,0,WeatherLink 5.7,2013-05-31 08:55:00,
2013-05-31 03:00:00,50.1,30.6,29.68,East,90,1.0,4.0,47,0.00,,,-99.99,0,WeatherLink 5.7,2013-05-31 09:00:00,
2013-05-31 03:10:00,50.2,30.2,29.68,North,-999,0.0,0.0,46,0.00,,,-99.99,0,WeatherLink 5.7,2013-05-31 09:10:00,
2013-05-31 03:20:00,50.1,29.0,29.68,North,-999,0.0,0.0,44,0.00,,,-99.99,0,WeatherLink 5.7,2013-05-31 09:20:00,
2013-05-31 03:25:00,50.2,29.1,29.68,North,-999,0.0,0.0,44,0.00,,,-99.99,0,WeatherLink 5.7,2013-05-31 09:25:00,
2013-05-31 03:35:00,50.7,28.4,29.68,NNW,337,0.0,3.0,42,0.00,,,-99.99,0,WeatherLink 5.7,2013-05-31 09:35:00,
2013-05-31 03:40:00,50.7,28.4,29.68,North,-999,0.0,0.0,42,0.00,,,-99.99,0,WeatherLink 5.7,2013-05-31 09:40:00,
2013-05-31 03:45:00,50.7,29.0,29.68,North,-999,0.0,0.0,43,0.00,,,-99.99,0,WeatherLink 5.7,2013-05-31 09:45:00,
2013-05-31 03:50:00,50.4,29.3,29.67,North,-999,0.0,0.0,44,0.00,,,-99.99,0,WeatherLink 5.7,2013-05-31 09:50:00,
2013-05-31 04:00:00,50.1,30.6,29.67,NNW,337,0.0,3.0,47,0.00,,,-99.99,0,WeatherLink 5.7,2013-05-31 10:00:00,
2013-05-31 04:10:00,50.2,29.1,29.68,NNW,337,0.0,3.0,44,0.00,,,-99.99,0,WeatherLink 5.7,2013-05-31 10:10:00,
2013-05-31 04:20:00,49.8,29.8,29.69,North,-999,0.0,0.0,46,0.00,,,-99.99,0,WeatherLink 5.7,2013-05-31 10:20:00,
2013-05-31 04:25:00,49.6,29.6,29.69,North,-999,0.0,0.0,46,0.00,,,-99.99,0,WeatherLink 5.7,2013-05-31 10:25:00,
2013-05-31 04:30:00,49.3,29.9,29.69,North,-999,0.0,0.0,47,0.00,,,-99.99,0,WeatherLink 5.7,2013-05-31 10:30:00,
2013-05-31 04:40:00,49.1,30.2,29.71,North,-999,0.0,0.0,48,0.00,,,-99.99,0,WeatherLink 5.7,2013-05-31 10:40:00,
2013-05-31 04:45:00,48.9,30.1,29.71,North,-999,0.0,0.0,48,0.00,,,-99.99,0,WeatherLink 5.7,2013-05-31 10:45:00,
2013-05-31 04:55:00,48.9,29.5,29.71,NNW,337,0.0,3.0,47,0.00,,,-99.99,0,WeatherLink 5.7,2013-05-31 10:55:00,
2013-05-31 05:00:00,48.9,29.5,29.71,NW,315,0.0,2.0,47,0.00,,,-99.99,0,WeatherLink 5.7,2013-05-31 11:00:00,
2013-05-31 05:10:00,48.6,29.3,29.71,North,-999,0.0,0.0,47,0.00,,,-99.99,0,WeatherLink 5.7,2013-05-31 11:10:00,
2013-05-31 05:15:00,48.6,29.3,29.71,North,-999,0.0,0.0,47,0.00,,,-99.99,0,WeatherLink 5.7,2013-05-31 11:15:00,
2013-05-31 05:20:00,48.5,29.7,29.71,North,-999,0.0,0.0,48,0.00,,,-99.99,0,WeatherLink 5.7,2013-05-31 11:20:00,
2013-05-31 05:30:00,47.7,30.0,29.71,NW,315,0.0,1.0,50,0.00,,,-99.99,0,WeatherLink 5.7,2013-05-31 11:30:00,
2013-05-31 05:35:00,47.4,30.2,29.72,North,-999,0.0,0.0,51,0.00,,,-99.99,0,WeatherLink 5.7,2013-05-31 11:35:00,
2013-05-31 05:40:00,47.0,30.7,29.72,North,-999,0.0,0.0,53,0.00,,,-99.99,0,WeatherLink 5.7,2013-05-31 11:40:00,
2013-05-31 05:45:00,46.5,30.3,29.72,North,-999,0.0,0.0,53,0.00,,,-99.99,0,WeatherLink 5.7,2013-05-31 11:45:00,
2013-05-31 05:55:00,45.4,29.7,29.74,North,-999,0.0,0.0,54,0.00,,,-99.99,4,WeatherLink 5.7,2013-05-31 11:55:00,
2013-05-31 06:00:00,45.1,30.3,29.74,North,-999,0.0,0.0,56,0.00,,,-99.99,5,WeatherLink 5.7,2013-05-31 12:00:00,
2013-05-31 06:10:00,43.9,30.1,29.75,North,-999,0.0,0.0,58,0.00,,,-99.99,7,WeatherLink 5.7,2013-05-31 12:10:00,
2013-05-31 06:20:00,43.2,30.2,29.76,North,-999,0.0,0.0,60,0.00,,,-99.99,11,WeatherLink 5.7,2013-05-31 12:20:00,
2013-05-31 06:25:00,43.2,30.2,29.76,North,-999,0.0,0.0,60,0.00,,,-99.99,12,WeatherLink 5.7,2013-05-31 12:25:00,
2013-05-31 06:35:00,43.0,30.9,29.77,North,-999,0.0,0.0,62,0.00,,,-99.99,14,WeatherLink 5.7,2013-05-31 12:35:00,
2013-05-31 06:40:00,42.6,30.5,29.77,North,-999,0.0,0.0,62,0.00,,,-99.99,14,WeatherLink 5.7,2013-05-31 12:40:00,
2013-05-31 06:45:00,42.3,30.6,29.77,North,-999,0.0,0.0,63,0.00,,,-99.99,15,WeatherLink 5.7,2013-05-31 12:45:00,
2013-05-31 06:55:00,42.0,30.3,29.78,North,-999,0.0,0.0,63,0.00,,,-99.99,16,WeatherLink 5.7,2013-05-31 12:55:00,
2013-05-31 07:00:00,42.2,30.9,29.78,North,-999,0.0,0.0,64,0.00,,,-99.99,18,WeatherLink 5.7,2013-05-31 13:00:00,
2013-05-31 08:05:00,42.2,31.3,29.78,North,-999,0.0,0.0,65,0.00,,,-99.99,19,WeatherLink 5.7,2013-05-31 14:05:00,
2013-05-31 08:10:00,41.9,31.0,29.78,North,-999,0.0,0.0,65,0.00,,,-99.99,19,WeatherLink 5.7,2013-05-31 14:10:00,
2013-05-31 08:15:00,41.8,30.9,29.80,North,-999,0.0,0.0,65,0.00,,,-99.99,21,WeatherLink 5.7,2013-05-31 14:15:00,
2013-05-31 08:20:00,41.9,31.0,29.80,North,-999,0.0,0.0,65,0.00,,,-99.99,21,WeatherLink 5.7,2013-05-31 14:20:00,
2013-05-31 08:25:00,41.9,31.4,29.80,North,-999,0.0,0.0,66,0.00,,,-99.99,26,WeatherLink 5.7,2013-05-31 14:25:00,
2013-05-31 08:30:00,42.2,31.6,29.80,North,-999,0.0,0.0,66,0.00,,,-99.99,213,WeatherLink 5.7,2013-05-31 14:30:00,
2013-05-31 08:35:00,43.6,31.8,29.80,North,-999,0.0,0.0,63,0.00,,,-99.99,286,WeatherLink 5.7,2013-05-31 14:35:00,
2013-05-31 08:40:00,45.1,32.4,29.80,North,-999,0.0,0.0,61,0.00,,,-99.99,304,WeatherLink 5.7,2013-05-31 14:40:00,
2013-05-31 08:45:00,45.8,32.7,29.78,North,-999,0.0,0.0,60,0.00,,,-99.99,322,WeatherLink 5.7,2013-05-31 14:45:00,
2013-05-31 08:50:00,47.0,31.7,29.78,NW,315,0.0,2.0,55,0.00,,,-99.99,338,WeatherLink 5.7,2013-05-31 14:50:00,
2013-05-31 08:55:00,47.9,32.0,29.78,NNW,337,0.0,1.0,54,0.00,,,-99.99,357,WeatherLink 5.7,2013-05-31 14:55:00,
2013-05-31 09:00:00,48.6,31.8,29.76,North,-999,0.0,0.0,52,0.00,,,-99.99,374,WeatherLink 5.7,2013-05-31 15:00:00,
2013-05-31 09:05:00,48.9,30.6,29.76,NNW,337,0.0,3.0,49,0.00,,,-99.99,390,WeatherLink 5.7,2013-05-31 15:05:00,
2013-05-31 09:10:00,49.6,32.2,29.76,NNW,337,0.0,1.0,51,0.00,,,-99.99,408,WeatherLink 5.7,2013-05-31 15:10:00,
2013-05-31 09:15:00,50.5,32.5,29.76,North,-999,0.0,0.0,50,0.00,,,-99.99,427,WeatherLink 5.7,2013-05-31 15:15:00,
2013-05-31 09:20:00,51.7,32.6,29.76,NNW,337,0.0,1.0,48,0.00,,,-99.99,444,WeatherLink 5.7,2013-05-31 15:20:00,
2013-05-31 09:25:00,52.2,30.9,29.76,North,-999,0.0,0.0,44,0.00,,,-99.99,461,WeatherLink 5.7,2013-05-31 15:25:00,
2013-05-31 09:30:00,52.2,29.8,29.76,NW,315,1.0,5.0,42,0.00,,,-99.99,478,WeatherLink 5.7,2013-05-31 15:30:00,
2013-05-31 09:35:00,52.2,29.2,29.76,NW,315,1.0,3.0,41,0.00,,,-99.99,495,WeatherLink 5.7,2013-05-31 15:35:00,
2013-05-31 09:40:00,52.3,29.3,29.76,NW,315,0.0,3.0,41,0.00,,,-99.99,513,WeatherLink 5.7,2013-05-31 15:40:00,
2013-05-31 09:45:00,52.8,30.3,29.75,NW,315,0.0,2.0,42,0.00,,,-99.99,529,WeatherLink 5.7,2013-05-31 15:45:00,
2013-05-31 09:50:00,53.0,29.9,29.75,NNW,337,1.0,4.0,41,0.00,,,-99.99,546,WeatherLink 5.7,2013-05-31 15:50:00,
2013-05-31 09:55:00,53.5,29.7,29.75,NNW,337,1.0,5.0,40,0.00,,,-99.99,563,WeatherLink 5.7,2013-05-31 15:55:00,
2013-05-31 10:00:00,54.1,29.0,29.75,NW,315,0.0,5.0,38,0.00,,,-99.99,579,WeatherLink 5.7,2013-05-31 16:00:00,
2013-05-31 10:05:00,54.7,28.9,29.75,NNW,337,1.0,4.0,37,0.00,,,-99.99,596,WeatherLink 5.7,2013-05-31 16:05:00,
2013-05-31 10:10:00,55.3,28.8,29.75,NNW,337,0.0,3.0,36,0.00,,,-99.99,612,WeatherLink 5.7,2013-05-31 16:10:00,
2013-05-31 10:15:00,55.9,27.2,29.75,NNW,337,0.0,3.0,33,0.00,,,-99.99,630,WeatherLink 5.7,2013-05-31 16:15:00,
2013-05-31 10:20:00,56.4,26.9,29.75,WNW,292,0.0,3.0,32,0.00,,,-99.99,648,WeatherLink 5.7,2013-05-31 16:20:00,
2013-05-31 10:25:00,57.3,26.9,29.75,North,0,0.0,1.0,31,0.00,,,-99.99,665,WeatherLink 5.7,2013-05-31 16:25:00,
2013-05-31 10:30:00,57.5,27.1,29.74,NW,315,1.0,5.0,31,0.00,,,-99.99,681,WeatherLink 5.7,2013-05-31 16:30:00,
2013-05-31 10:35:00,57.8,27.3,29.74,WNW,292,0.0,3.0,31,0.00,,,-99.99,695,WeatherLink 5.7,2013-05-31 16:35:00,
2013-05-31 10:40:00,58.7,28.1,29.74,SSW,202,1.0,6.0,31,0.00,,,-99.99,708,WeatherLink 5.7,2013-05-31 16:40:00,
2013-05-31 10:45:00,58.6,27.2,29.73,NNW,337,0.0,5.0,30,0.00,,,-99.99,725,WeatherLink 5.7,2013-05-31 16:45:00,
2013-05-31 10:50:00,58.3,26.1,29.73,NNW,337,0.0,5.0,29,0.00,,,-99.99,739,WeatherLink 5.7,2013-05-31 16:50:00,
2013-05-31 10:55:00,58.6,27.2,29.73,NW,315,0.0,3.0,30,0.00,,,-99.99,752,WeatherLink 5.7,2013-05-31 16:55:00,
2013-05-31 11:00:00,58.6,26.4,29.72,NW,315,0.0,4.0,29,0.00,,,-99.99,767,WeatherLink 5.7,2013-05-31 17:00:00,
2013-05-31 11:05:00,58.6,26.4,29.72,NNW,337,1.0,10.0,29,0.00,,,-99.99,779,WeatherLink 5.7,2013-05-31 17:05:00,
2013-05-31 11:10:00,58.6,27.2,29.72,NNW,337,1.0,7.0,30,0.00,,,-99.99,791,WeatherLink 5.7,2013-05-31 17:10:00,
2013-05-31 11:15:00,59.0,26.8,29.74,NNW,337,0.0,4.0,29,0.00,,,-99.99,803,WeatherLink 5.7,2013-05-31 17:15:00,
2013-05-31 11:20:00,59.5,25.5,29.74,North,0,0.0,7.0,27,0.00,,,-99.99,820,WeatherLink 5.7,2013-05-31 17:20:00,
2013-05-31 11:25:00,60.1,26.9,29.74,North,0,0.0,2.0,28,0.00,,,-99.99,850,WeatherLink 5.7,2013-05-31 17:25:00,
2013-05-31 11:30:00,59.9,24.9,29.75,NNW,337,0.0,5.0,26,0.00,,,-99.99,853,WeatherLink 5.7,2013-05-31 17:30:00,
2013-05-31 11:35:00,59.5,24.5,29.75,NNW,337,0.0,5.0,26,0.00,,,-99.99,358,WeatherLink 5.7,2013-05-31 17:35:00,
2013-05-31 11:40:00,58.7,25.6,29.75,NNW,337,2.0,7.0,28,0.00,,,-99.99,647,WeatherLink 5.7,2013-05-31 17:40:00,
2013-05-31 11:45:00,59.0,25.9,29.75,NW,315,1.0,5.0,28,0.00,,,-99.99,921,WeatherLink 5.7,2013-05-31 17:45:00,
2013-05-31 11:50:00,60.2,25.1,29.75,NW,315,0.0,4.0,26,0.00,,,-99.99,911,WeatherLink 5.7,2013-05-31 17:50:00,
2013-05-31 11:55:00,59.5,25.5,29.75,East,90,3.0,10.0,27,0.00,,,-99.99,949,WeatherLink 5.7,2013-05-31 17:55:00,
2013-05-31 12:00:00,59.9,24.9,29.75,NW,315,1.0,7.0,26,0.00,,,-99.99,1011,WeatherLink 5.7,2013-05-31 18:00:00,
2013-05-31 12:05:00,60.2,26.1,29.75,North,0,1.0,4.0,27,0.00,,,-99.99,747,WeatherLink 5.7,2013-05-31 18:05:00,
2013-05-31 12:10:00,60.2,24.2,29.75,NW,315,1.0,6.0,25,0.00,,,-99.99,1037,WeatherLink 5.7,2013-05-31 18:10:00,
2013-05-31 12:15:00,60.4,26.2,29.77,WSW,247,1.0,5.0,27,0.00,,,-99.99,962,WeatherLink 5.7,2013-05-31 18:15:00,
2013-05-31 12:20:00,61.0,26.7,29.77,WSW,247,0.0,1.0,27,0.00,,,-99.99,983,WeatherLink 5.7,2013-05-31 18:20:00,
2013-05-31 12:25:00,61.3,26.1,29.77,ENE,67,1.0,5.0,26,0.00,,,-99.99,1001,WeatherLink 5.7,2013-05-31 18:25:00,
2013-05-31 12:30:00,61.5,25.3,29.75,NW,315,0.0,3.0,25,0.00,,,-99.99,1040,WeatherLink 5.7,2013-05-31 18:30:00,
2013-05-31 12:40:00,61.5,25.3,29.75,SSW,202,4.0,18.0,25,0.00,,,-99.99,1109,WeatherLink 5.7,2013-05-31 18:40:00,
2013-05-31 12:50:00,63.7,23.0,29.74,NW,315,4.0,16.0,21,0.00,,,-99.99,1157,WeatherLink 5.7,2013-05-31 18:50:00,
2013-05-31 12:55:00,62.8,23.3,29.74,SE,135,4.0,12.0,22,0.00,,,-99.99,1133,WeatherLink 5.7,2013-05-31 18:55:00,
2013-05-31 13:00:00,63.7,25.2,29.74,NW,315,1.0,5.0,23,0.00,,,-99.99,1143,WeatherLink 5.7,2013-05-31 19:00:00,
2013-05-31 13:10:00,65.2,24.2,29.73,NW,315,1.0,8.0,21,0.00,,,-99.99,1139,WeatherLink 5.7,2013-05-31 19:10:00,
2013-05-31 13:15:00,64.7,24.9,29.73,WNW,292,5.0,17.0,22,0.00,,,-99.99,1176,WeatherLink 5.7,2013-05-31 19:15:00,
2013-05-31 13:20:00,64.5,25.8,29.74,NNW,337,4.0,12.0,23,0.00,,,-99.99,1034,WeatherLink 5.7,2013-05-31 19:20:00,
2013-05-31 13:30:00,62.6,22.1,29.74,NNW,337,3.0,11.0,21,0.00,,,-99.99,220,WeatherLink 5.7,2013-05-31 19:30:00,
2013-05-31 13:35:00,62.0,23.7,29.75,NNW,337,2.0,7.0,23,0.00,,,-99.99,198,WeatherLink 5.7,2013-05-31 19:35:00,
2013-05-31 13:40:00,62.9,23.4,29.75,East,90,1.0,4.0,22,0.00,,,-99.99,907,WeatherLink 5.7,2013-05-31 19:40:00,
2013-05-31 13:50:00,64.4,23.6,29.73,NW,315,0.0,5.0,21,0.00,,,-99.99,692,WeatherLink 5.7,2013-05-31 19:50:00,
2013-05-31 14:00:00,64.9,22.8,29.73,NNW,337,1.0,10.0,20,0.00,,,-99.99,1011,WeatherLink 5.7,2013-05-31 20:00:00,
2013-05-31 14:05:00,64.5,22.5,29.73,NW,315,1.0,5.0,20,0.00,,,-99.99,223,WeatherLink 5.7,2013-05-31 20:05:00,
2013-05-31 14:15:00,65.0,20.4,29.73,NW,315,3.0,8.0,18,0.00,,,-99.99,1129,WeatherLink 5.7,2013-05-31 20:15:00,
2013-05-31 14:25:00,66.0,18.5,29.73,NNW,337,1.0,5.0,16,0.00,,,-99.99,1153,WeatherLink 5.7,2013-05-31 20:25:00,
2013-05-31 14:30:00,66.1,18.5,29.73,North,0,5.0,13.0,16,0.00,,,-99.99,1131,WeatherLink 5.7,2013-05-31 20:30:00,
2013-05-31 14:35:00,66.3,18.7,29.72,NNW,337,4.0,12.0,16,0.00,,,-99.99,1092,WeatherLink 5.7,2013-05-31 20:35:00,
2013-05-31 14:45:00,65.2,16.3,29.72,North,0,2.0,8.0,15,0.00,,,-99.99,559,WeatherLink 5.7,2013-05-31 20:45:00,
2013-05-31 14:50:00,65.0,19.1,29.74,NNW,337,3.0,12.0,17,0.00,,,-99.99,271,WeatherLink 5.7,2013-05-31 20:50:00,
2013-05-31 15:00:00,65.8,16.8,29.74,NNW,337,3.0,11.0,15,0.00,,,-99.99,1065,WeatherLink 5.7,2013-05-31 21:00:00,
2013-05-31 15:10:00,66.1,17.0,29.72,NNW,337,3.0,18.0,15,0.00,,,-99.99,998,WeatherLink 5.7,2013-05-31 21:10:00,
2013-05-31 15:20:00,66.0,17.0,29.71,North,0,2.0,10.0,15,0.00,,,-99.99,161,WeatherLink 5.7,2013-05-31 21:20:00,
2013-05-31 15:25:00,66.1,17.0,29.71,NNW,337,3.0,12.0,15,0.00,,,-99.99,960,WeatherLink 5.7,2013-05-31 21:25:00,
2013-05-31 15:35:00,66.8,17.6,29.72,NNW,337,3.0,15.0,15,0.00,,,-99.99,920,WeatherLink 5.7,2013-05-31 21:35:00,
2013-05-31 15:40:00,66.3,18.7,29.72,NNW,337,7.0,22.0,16,0.00,,,-99.99,925,WeatherLink 5.7,2013-05-31 21:40:00,
2013-05-31 15:45:00,66.1,18.5,29.72,North,0,4.0,20.0,16,0.00,,,-99.99,937,WeatherLink 5.7,2013-05-31 21:45:00,
2013-05-31 15:50:00,67.3,16.4,29.72,NNW,337,2.0,14.0,14,0.00,,,-99.99,901,WeatherLink 5.7,2013-05-31 21:50:00,
2013-05-31 16:00:00,67.1,16.3,29.72,North,0,3.0,17.0,14,0.00,,,-99.99,853,WeatherLink 5.7,2013-05-31 22:00:00,
2013-05-31 16:10:00,67.5,16.6,29.73,NW,315,3.0,12.0,14,0.00,,,-99.99,879,WeatherLink 5.7,2013-05-31 22:10:00,
2013-05-31 16:20:00,67.3,16.4,29.72,NNW,337,4.0,12.0,14,0.00,,,-99.99,805,WeatherLink 5.7,2013-05-31 22:20:00,
2013-05-31 16:25:00,67.3,16.4,29.72,NNW,337,1.0,12.0,14,0.00,,,-99.99,782,WeatherLink 5.7,2013-05-31 22:25:00,
2013-05-31 16:30:00,67.6,16.6,29.72,NNW,337,2.0,12.0,14,0.00,,,-99.99,773,WeatherLink 5.7,2013-05-31 22:30:00,
2013-05-31 16:35:00,68.0,17.0,29.73,NNW,337,3.0,11.0,14,0.00,,,-99.99,739,WeatherLink 5.7,2013-05-31 22:35:00,
2013-05-31 16:45:00,67.6,18.3,29.73,NW,315,1.0,5.0,15,0.00,,,-99.99,560,WeatherLink 5.7,2013-05-31 22:45:00,
2013-05-31 16:55:00,67.6,16.6,29.73,North,0,2.0,19.0,14,0.00,,,-99.99,715,WeatherLink 5.7,2013-05-31 22:55:00,
2013-05-31 17:00:00,68.0,17.0,29.73,NNW,337,1.0,9.0,14,0.00,,,-99.99,679,WeatherLink 5.7,2013-05-31 23:00:00,
2013-05-31 17:10:00,66.1,17.0,29.73,North,0,2.0,16.0,15,0.00,,,-99.99,145,WeatherLink 5.7,2013-05-31 23:10:00,
2013-05-31 17:15:00,66.8,19.1,29.73,North,0,1.0,6.0,16,0.00,,,-99.99,658,WeatherLink 5.7,2013-05-31 23:15:00,
2013-05-31 17:20:00,67.3,16.4,29.75,NW,315,1.0,7.0,14,0.00,,,-99.99,616,WeatherLink 5.7,2013-05-31 23:20:00,
2013-05-31 17:25:00,67.5,16.6,29.75,NNW,337,4.0,12.0,14,0.00,,,-99.99,592,WeatherLink 5.7,2013-05-31 23:25:00,
2013-05-31 17:30:00,67.1,16.3,29.75,NW,315,2.0,10.0,14,0.00,,,-99.99,406,WeatherLink 5.7,2013-05-31 23:30:00,
2013-05-31 17:40:00,67.3,18.0,29.75,NW,315,1.0,6.0,15,0.00,,,-99.99,533,WeatherLink 5.7,2013-05-31 23:40:00,
2013-05-31 17:45:00,66.6,19.0,29.75,NW,315,2.0,10.0,16,0.00,,,-99.99,87,WeatherLink 5.7,2013-05-31 23:45:00,
2013-05-31 17:50:00,66.6,19.0,29.75,NW,315,1.0,6.0,16,0.00,,,-99.99,507,WeatherLink 5.7,2013-05-31 23:50:00,
2013-05-31 18:00:00,67.3,16.4,29.75,NNW,337,2.0,8.0,14,0.00,,,-99.99,370,WeatherLink 5.7,2013-06-01 00:00:00,
2013-05-31 18:10:00,67.0,17.8,29.75,NNW,337,1.0,10.0,15,0.00,,,-99.99,135,WeatherLink 5.7,2013-06-01 00:10:00,
2013-05-31 18:20:00,66.3,13.9,29.78,NW,315,4.0,11.0,13,0.00,,,-99.99,90,WeatherLink 5.7,2013-06-01 00:20:00,
2013-05-31 18:25:00,66.3,15.6,29.78,NNW,337,2.0,9.0,14,0.00,,,-99.99,72,WeatherLink 5.7,2013-06-01 00:25:00,
2013-05-31 18:30:00,66.0,15.4,29.78,NNW,337,3.0,11.0,14,0.00,,,-99.99,119,WeatherLink 5.7,2013-06-01 00:30:00,
2013-05-31 18:35:00,65.8,16.8,29.78,NNW,337,0.0,4.0,15,0.00,,,-99.99,92,WeatherLink 5.7,2013-06-01 00:35:00,
2013-05-31 18:40:00,66.0,17.0,29.78,NW,315,1.0,5.0,15,0.00,,,-99.99,54,WeatherLink 5.7,2013-06-01 00:40:00,
2013-05-31 18:45:00,66.1,17.0,29.78,NW,315,1.0,5.0,15,0.00,,,-99.99,63,WeatherLink 5.7,2013-06-01 00:45:00,
2013-05-31 18:55:00,65.7,16.7,29.78,WSW,247,0.0,4.0,15,0.00,,,-99.99,43,WeatherLink 5.7,2013-06-01 00:55:00,
2013-05-31 19:00:00,65.5,16.6,29.78,NW,315,2.0,7.0,15,0.00,,,-99.99,40,WeatherLink 5.7,2013-06-01 01:00:00,
2013-05-31 19:10:00,65.0,17.7,29.79,NNE,22,0.0,3.0,16,0.00,,,-99.99,39,WeatherLink 5.7,2013-06-01 01:10:00,
2013-05-31 19:20:00,64.4,17.2,29.76,NW,315,0.0,4.0,16,0.00,,,-99.99,21,WeatherLink 5.7,2013-06-01 01:20:00,
2013-05-31 19:25:00,63.7,18.0,29.76,North,-999,0.0,0.0,17,0.00,,,-99.99,19,WeatherLink 5.7,2013-06-01 01:25:00,
2013-05-31 19:35:00,62.6,18.4,29.77,NW,315,0.0,2.0,18,0.00,,,-99.99,18,WeatherLink 5.7,2013-06-01 01:35:00,
2013-05-31 19:40:00,62.1,18.0,29.77,NW,315,0.0,1.0,18,0.00,,,-99.99,18,WeatherLink 5.7,2013-06-01 01:40:00,
2013-05-31 19:50:00,61.3,19.8,29.78,NW,315,0.0,1.0,20,0.00,,,-99.99,15,WeatherLink 5.7,2013-06-01 01:50:00,
2013-05-31 19:55:00,61.2,18.6,29.78,NW,315,0.0,4.0,19,0.00,,,-99.99,14,WeatherLink 5.7,2013-06-01 01:55:00,
2013-05-31 20:00:00,61.8,16.5,29.78,NW,315,1.0,7.0,17,0.00,,,-99.99,13,WeatherLink 5.7,2013-06-01 02:00:00,
2013-05-31 20:10:00,61.3,19.8,29.79,North,-999,0.0,0.0,20,0.00,,,-99.99,11,WeatherLink 5.7,2013-06-01 02:10:00,
2013-05-31 20:20:00,59.6,19.6,29.77,North,-999,0.0,0.0,21,0.00,,,-99.99,8,WeatherLink 5.7,2013-06-01 02:20:00,
2013-05-31 20:25:00,58.4,20.7,29.77,North,-999,0.0,0.0,23,0.00,,,-99.99,7,WeatherLink 5.7,2013-06-01 02:25:00,
2013-05-31 20:30:00,57.8,22.2,29.77,North,-999,0.0,0.0,25,0.00,,,-99.99,5,WeatherLink 5.7,2013-06-01 02:30:00,
2013-05-31 20:40:00,56.6,21.1,29.80,NW,315,0.0,1.0,25,0.00,,,-99.99,0,WeatherLink 5.7,2013-06-01 02:40:00,
2013-05-31 20:45:00,56.0,22.4,29.80,NW,315,0.0,1.0,27,0.00,,,-99.99,0,WeatherLink 5.7,2013-06-01 02:45:00,
2013-05-31 20:50:00,55.9,20.5,29.81,NW,315,0.0,1.0,25,0.00,,,-99.99,0,WeatherLink 5.7,2013-06-01 02:50:00,
2013-05-31 21:00:00,55.4,20.1,29.81,North,-999,0.0,0.0,25,0.00,,,-99.99,0,WeatherLink 5.7,2013-06-01 03:00:00,
2013-05-31 21:10:00,55.1,21.7,29.83,NW,315,0.0,1.0,27,0.00,,,-99.99,0,WeatherLink 5.7,2013-06-01 03:10:00,
2013-05-31 21:15:00,54.8,20.5,29.83,North,-999,0.0,0.0,26,0.00,,,-99.99,0,WeatherLink 5.7,2013-06-01 03:15:00,
2013-05-31 21:25:00,54.5,21.2,29.80,NW,315,0.0,1.0,27,0.00,,,-99.99,0,WeatherLink 5.7,2013-06-01 03:25:00,
2013-05-31 21:30:00,54.7,20.4,29.80,NW,315,0.0,2.0,26,0.00,,,-99.99,0,WeatherLink 5.7,2013-06-01 03:30:00,
2013-05-31 21:35:00,54.4,20.2,29.83,North,-999,0.0,0.0,26,0.00,,,-99.99,0,WeatherLink 5.7,2013-06-01 03:35:00,
2013-05-31 21:50:00,53.6,21.2,29.83,NW,315,0.0,3.0,28,0.00,,,-99.99,0,WeatherLink 5.7,2013-06-01 03:50:00,
2013-05-31 21:55:00,53.5,22.0,29.83,SE,135,0.0,4.0,29,0.00,,,-99.99,0,WeatherLink 5.7,2013-06-01 03:55:00,
2013-05-31 22:00:00,53.2,22.5,29.83,SE,135,0.0,1.0,30,0.00,,,-99.99,0,WeatherLink 5.7,2013-06-01 04:00:00,
2013-05-31 22:05:00,53.0,20.7,29.85,SE,135,0.0,3.0,28,0.00,,,-99.99,0,WeatherLink 5.7,2013-06-01 04:05:00,
2013-05-31 22:15:00,52.8,21.4,29.85,SE,135,0.0,2.0,29,0.00,,,-99.99,0,WeatherLink 5.7,2013-06-01 04:15:00,
2013-05-31 22:25:00,51.9,20.6,29.85,East,90,0.0,3.0,29,0.00,,,-99.99,0,WeatherLink 5.7,2013-06-01 04:25:00,
2013-05-31 22:30:00,51.0,21.4,29.85,East,90,0.0,1.0,31,0.00,,,-99.99,0,WeatherLink 5.7,2013-06-01 04:30:00,
2013-05-31 22:35:00,50.8,20.4,29.88,East,90,0.0,1.0,30,0.00,,,-99.99,0,WeatherLink 5.7,2013-06-01 04:35:00,
2013-05-31 22:45:00,50.2,21.4,29.88,North,-999,0.0,0.0,32,0.00,,,-99.99,0,WeatherLink 5.7,2013-06-01 04:45:00,
2013-05-31 22:50:00,49.5,21.5,29.88,East,90,0.0,3.0,33,0.00,,,-99.99,0,WeatherLink 5.7,2013-06-01 04:50:00,
2013-05-31 23:00:00,48.9,21.7,29.88,East,90,0.0,3.0,34,0.00,,,-99.99,0,WeatherLink 5.7,2013-06-01 05:00:00,
2013-05-31 23:10:00,48.3,23.2,29.90,East,90,1.0,3.0,37,0.00,,,-99.99,0,WeatherLink 5.7,2013-06-01 05:10:00,
2013-05-31 23:15:00,47.6,24.4,29.90,East,90,0.0,3.0,40,0.00,,,-99.99,0,WeatherLink 5.7,2013-06-01 05:15:00,
2013-05-31 23:20:00,47.1,24.6,29.90,East,90,0.0,1.0,41,0.00,,,-99.99,0,WeatherLink 5.7,2013-06-01 05:20:00,
2013-05-31 23:30:00,46.7,23.6,29.90,East,90,0.0,1.0,40,0.00,,,-99.99,0,WeatherLink 5.7,2013-06-01 05:30:00,
2013-05-31 23:40:00,46.7,22.4,29.90,East,90,0.0,3.0,38,0.00,,,-99.99,0,WeatherLink 5.7,2013-06-01 05:40:00,
2013-05-31 23:50:00,46.1,23.1,29.90,East,90,0.0,1.0,40,0.00,,,-99.99,0,WeatherLink 5.7,2013-06-01 05:50:00,
2013-05-31 23:55:00,45.8,22.8,29.90,East,90,0.0,2.0,40,0.00,,,-99.99,0,WeatherLink 5.7,2013-06-01 05:55:00,